Location: Berbisdorf
(50.7638°N, 12.9442°E)
Time: 15:48:41
(UTC+00:00)

Cosmos 2298 Rocket - Pass Details

Date: 07 June 2020
Orbit: 776 x 784 km, 74.0° (Epoch: 09 July)

Event Time Altitude Azimuth Distance (km) Brightness Sun altitude
Rises 00:07:41 0° 335° (NNW) 3,272 8.1 -15.3°
Reaches altitude 10° 00:10:05 10° 335° (NNW) 2,341 7.2 -15.2°
Maximum altitude 00:15:24 86° 248° (WSW) 789 4.0 -14.9°
Enters shadow 00:19:50 15° 160° (SSE) 1,993 5.7 -14.7°
